Погода в Лесном Матюнине

Россия / Ульяновская область     53°26′30″N   47°25′11″E
темп.,
°C
ветер,
м/с
пор.,
м/с
влажн.,
%
обл.,
%
осадки,
мм/ч
давл.,
гПа
погр.,
м
11 мая, вт
вт1101:00+15всв41264100 0.0 1018320
04:00+15всв41463100 0.0 1019406
07:00+16вюв41253100 0.0 1020557
10:00+19юв475154 0.0 10221006
13:00+21юв6104989 0.0 10231830
16:00+18ююз466779 0.8 1025756
19:00+15юз3473100 0.2 1025363
22:00+12сз118895 0.3 102621
12 мая, ср
ср1201:00+12сз009079 0.0 102614
04:00+13всв2588100 0.0 1025147
07:00+15вюв41175100 0.0 1025575
10:00+14в41379100 0.2 1025709
13:00+15вюв51169100 0.1 1026808
16:00+13в31191100 3.1 1026514
19:00+14в3108690 0.4 1025312
22:00+13вюв3118597 0.4 1025274
13 мая, чт
чт1301:00+12в288890 0.0 1024142
04:00+11в398168 0.0 1024162
07:00+13в41268100 0.0 1023306
10:00+18юв61152100 0.0 1023648
13:00+20вюв71260100 0.1 1023902
16:00+21вюв71453100 0.1 10221348
19:00+20ююв5124770 0.0 10211012
22:00+16юв4156768 0.7 1021455
14 мая, пт
пт1401:00+15юв41469100 0.1 1021357
04:00+13юв22785 0.1 102134
07:00+15юв256883 0.0 1022147
10:00+21ююв4749100 0.0 1022461
13:00+25ююв593580 0.0 1021899
16:00+26ю6103347 0.0 10211394
19:00+23ююв41147100 0.0 1021645
22:00+19ююв413575 0.0 1021361
15 мая, сб
сб1501:00+16ююв29605 0.0 1021169
04:00+14ююв236132 0.0 102151
07:00+17ююв28585 0.0 1021219
10:00+23ю59355 0.0 1020543
13:00+27ю69265 0.0 10201213
16:00+27ю59265 0.0 10191793
19:00+24ююв39421 0.0 1019369
22:00+18ююв225763 0.0 101834